SCP
0 0 0 0 0 0 0 0 0 0 0 0 0 0 0 0 0 0 0 0 0 0
0 0 0 0 0 0 0 0 0 0 0 0 0 0 0 0 0 0 0 0 0 0
0 0 0 0 0 0 0 0 0 0 0 0 0 0 0 0 0 0 0 0 0 0
0 0 0 0 0 0 0 0 0 0 0 0 0 0 0 0 0 0 0 0 0 0
0 0 0 0 0 0 0 0 0 0 0 0 0 0 0 0 0 0 0 0 0 0
0 0 0 0 0 0 0 0 0 0 0 0 0 0 0 0 0 0 0 0 0 0
0 0 0 0 0 0 0 0 0 0 0 0 0 0 0 0 0 0 0 0 0 0
0 0 0 0 0 0 0 0 0 0 0 0 0 0 0 0 0 0 0 0 0 0
0 0 0 0 0 0 0 0 0 0 0 0 0 0 0 0 0 0 0 0 0 0
0 0 0 0 0 0 0 0 0 0 0 0 0 0 0 0 0 0 0 0 0 0
0 0 0 0 0 0 0 0 0 0 0 0 0 0 0 0 0 0 0 0 0 0
0 0 0 0 0 0 0 0 0 0 0 0 0 0 0 0 0 0 0 0 0 0
0 0 0 0 0 0 0 0 0 0 0 0 0 0 0 0 0 0 0 0 0 0
0 0 0 0 0 0 0 0 0 0 0 0 0 0 0 0 0 0 0 0 0 0
Wind_Speed_500mb
91 83 79 74 73 74 69 67 63 64 62 59 60 56 53 51 48 46 43 38 35 30
92 85 84 77 70 66 65 67 69 67 66 64 60 56 53 50 46 45 38 33 29 27
90 82 80 75 71 69 67 71 71 70 69 65 59 54 51 48 38 36 34 31 37 38
86 82 83 78 76 71 69 74 75 73 69 64 51 49 45 38 30 27 32 30 38 44
85 84 87 78 76 74 74 77 75 69 67 64 52 39 33 30 22 30 30 39 45 45
89 88 87 83 81 77 78 79 70 61 50 41 35 35 26 35 36 34 40 47 47 46
73 66 67 65 63 55 44 44 44 32 34 25 19 23 23 23 26 44 48 43 46 48
4 6 5 11 15 26 31 32 28 27 21 13 21 23 29 33 34 38 42 43 46 49
53 53 56 47 46 41 35 23 11 16 20 22 15 18 26 33 37 39 43 46 49 52
54 51 39 33 22 18 25 24 20 9 6 13 17 22 26 31 36 43 51 55 56 59
32 30 18 24 21 14 13 11 7 5 10 15 20 26 31 33 36 41 45 49 53 58
33 28 27 26 23 17 15 12 12 14 16 21 25 26 28 33 37 41 44 47 49 52
39 34 32 29 26 23 21 23 24 21 19 18 22 26 29 32 37 42 47 46 50 52
40 39 36 31 31 30 28 25 24 25 25 27 31 32 38 44 50 56 62 65 70 73
Wind_Direction_500mb
227 232 236 235 228 228 227 222 223 223 228 230 234 234 232 226 224 223 227 236 243 243
223 226 231 231 227 229 226 227 224 227 230 230 231 230 225 220 218 218 229 224 231 249
221 226 229 231 228 225 226 227 229 230 228 227 224 221 216 212 216 231 226 235 260 259
223 223 226 230 226 226 228 230 230 230 229 223 213 207 208 225 217 241 248 252 246 256
218 222 226 229 229 230 230 228 226 223 222 219 207 203 213 215 249 269 241 252 262 266
215 221 223 226 226 224 222 220 214 210 201 181 196 205 226 261 265 238 255 261 266 272
209 211 215 218 217 211 206 195 189 167 173 189 203 241 231 224 248 261 266 267 270 275
83 129 170 180 155 139 135 133 158 176 175 181 197 217 253 269 271 270 272 276 281 284
97 100 101 99 109 120 127 127 168 198 195 211 254 275 280 285 283 284 286 287 289 292
90 93 99 101 105 123 138 157 193 210 258 269 278 289 286 285 285 287 287 290 297 294
85 101 115 123 139 145 133 104 52 346 329 316 306 299 294 296 304 304 301 301 302 304
80 84 77 79 78 64 49 34 5 352 348 345 344 338 322 316 312 311 310 310 313 310
68 65 65 62 60 52 39 31 26 26 22 8 4 352 342 336 335 329 322 319 316 315
74 70 67 66 65 60 57 54 49 41 32 21 11 358 345 343 340 338 333 332 329 327
Wind_Speed_850mb
91 83 79 74 73 74 69 67 63 64 62 59 60 56 53 51 48 46 43 38 35 30
92 85 84 77 70 66 65 67 69 67 66 64 60 56 53 50 46 45 38 33 29 27
90 82 80 75 71 69 67 71 71 70 69 65 59 54 51 48 38 36 34 31 37 38
86 82 83 78 76 71 69 74 75 73 69 64 51 49 45 38 30 27 32 30 38 44
85 84 87 78 76 74 74 77 75 69 67 64 52 39 33 30 22 30 30 39 45 45
89 88 87 83 81 77 78 79 70 61 50 41 35 35 26 35 36 34 40 47 47 46
73 66 67 65 63 55 44 44 44 32 34 25 19 23 23 23 26 44 48 43 46 48
4 6 5 11 15 26 31 32 28 27 21 13 21 23 29 33 34 38 42 43 46 49
53 53 56 47 46 41 35 23 11 16 20 22 15 18 26 33 37 39 43 46 49 52
54 51 39 33 22 18 25 24 20 9 6 13 17 22 26 31 36 43 51 55 56 59
32 30 18 24 21 14 13 11 7 5 10 15 20 26 31 33 36 41 45 49 53 58
33 28 27 26 23 17 15 12 12 14 16 21 25 26 28 33 37 41 44 47 49 52
39 34 32 29 26 23 21 23 24 21 19 18 22 26 29 32 37 42 47 46 50 52
40 39 36 31 31 30 28 25 24 25 25 27 31 32 38 44 50 56 62 65 70 73
Wind_Direction_850mb
227 232 236 235 228 228 227 222 223 223 228 230 234 234 232 226 224 223 227 236 243 243
223 226 231 231 227 229 226 227 224 227 230 230 231 230 225 220 218 218 229 224 231 249
221 226 229 231 228 225 226 227 229 230 228 227 224 221 216 212 216 231 226 235 260 259
223 223 226 230 226 226 228 230 230 230 229 223 213 207 208 225 217 241 248 252 246 256
218 222 226 229 229 230 230 228 226 223 222 219 207 203 213 215 249 269 241 252 262 266
215 221 223 226 226 224 222 220 214 210 201 181 196 205 226 261 265 238 255 261 266 272
209 211 215 218 217 211 206 195 189 167 173 189 203 241 231 224 248 261 266 267 270 275
83 129 170 180 155 139 135 133 158 176 175 181 197 217 253 269 271 270 272 276 281 284
97 100 101 99 109 120 127 127 168 198 195 211 254 275 280 285 283 284 286 287 289 292
90 93 99 101 105 123 138 157 193 210 258 269 278 289 286 285 285 287 287 290 297 294
85 101 115 123 139 145 133 104 52 346 329 316 306 299 294 296 304 304 301 301 302 304
80 84 77 79 78 64 49 34 5 352 348 345 344 338 322 316 312 311 310 310 313 310
68 65 65 62 60 52 39 31 26 26 22 8 4 352 342 336 335 329 322 319 316 315
74 70 67 66 65 60 57 54 49 41 32 21 11 358 345 343 340 338 333 332 329 327